Dauntless Aviation
Greetings, Guest! To participate, [sign up for a free account] or [log in]
Airports Europe United Kingdom
EGLC
LCY

London City

London, UNITED KINGDOM

Airport Info
Edit

Location

Latitude / Longitude: 51°30'18"N / 0°3'12"E
  51°30.3'N / 0°3.21'E
  51.5050 / 0.0535

Nearby radio navigation aids

LCY CITY NDB on field.

Runway Information

Runway 10 /28

Dimensions: 4948 x 98 ft.
Surface: ASP
 
Runway 10
Runway 28
Latitude: 51.505528 51.504922
Longitude: 0.045753 0.064953
Elevation: 16 ft. 16 ft.
Runway true heading: 91.1 271.1
 

Instrument Procedures

  Control Zone and Control Area Chart
  Aircraft Parking/Docking Chart
  Aerodrome Chart

STARs (Standard Terminal Arrivals)

  STAR via SPEAR (Northwest)
  STAR via ALKIN (South)
  STAR via SPEAR (East)
  STAR via SPEAR (West)
  STAR via SPEAR (Alternate Holding at LOGAN and ALKIN)

IAPs (Instrument Approach Procedures)

  LOC/DME/NDB (L) Rwy 27 (Aircraft CAT A/B/C)
  Visual Approach Profile Rwy 27
  ILS (5.5°GP) /DME/NDB (L) Rwy 27 (Aircraft CAT A/B/C)
  Visual Approach Profile Rwy 09
  LOC/DME/NDB (L) Rwy 09
  ATC Surveillance Minimum Altitude Chart
  ILS (5.5°GP) /DME/NDB (L) Rwy 09 (Aircraft CAT A/B/C)

Departure Procedures

  SID DOVER/LYDD
  SID CLACTON
  SID SOUTHAMPTON
  SID BROOKMANS PARK/COMPTON
Satellite photo at:
Airport distance calculator
From:
Weather Reports

METAR

EGLC

EGLC 031720Z 22018KT 9999 SCT030 17/09 Q0998
EGKB
11.4nm S
EGKB 031720Z 22015KT 9999 SCT025 15/09 Q0999
EGLL
18.9nm SW
EGLL 031720Z 23019KT 9999 SCT033 17/09 Q0998 NOSIG
EGSS
23.5nm N
EGSS 031720Z 26010KT 9999 SCT036 16/11 Q0997
EGKK
23.8nm S
EGKK 031720Z 23017KT 9999 SCT022 SCT031 15/10 Q0999
EGMC
24.4nm NE
EGMC 031720Z 23023KT 9999 FEW035 16/08 Q0998

TAF

EGLC
TAF EGLC 031400Z 0315/0321 24014KT 9999 SCT020 PROB30 TEMPO 0315/0321 23017G27KT
EGKB
11.4nm S
TAF EGKB 031400Z 0315/0319 21014KT 9999 SCT015 PROB30 TEMPO 0315/0319 22017G27KT
EGWU
17.8nm W
TAF EGWU 031343Z 0315/0409 24018G28KT 9999 SCT030 BECMG 0318/0321 22012KT TEMPO 0319/0403 BKN022
EGLL
18.9nm SW
TAF EGLL 031058Z 0312/0418 20011KT 9999 SCT022 PROB30 TEMPO 0312/0318 22017G28KT 5000 SHRA BKN014CB BECMG 0415/0418 14007KT
EGSS
23.5nm N
TAF AMD EGSS 031231Z 0312/0418 24013KT 9999 BKN008 BECMG 0312/0314 SCT020 PROB30 TEMPO 0314/0317 24017G27KT 3000 +SHRA TSGS BKN014 BKN030CB PROB30 TEMPO 0322/0404 8000 -RA BKN014 BECMG 0412/0415 18008KT
EGKK
23.8nm S
TAF EGKK 031055Z 0312/0418 24014KT 9999 BKN008 BECMG 0312/0315 SCT020 PROB40 0320/0405 BKN012 BECMG 0415/0418 10008KT
Safelog

 

Dauntless Aviation

© 2007-2015 Dauntless Aviation, all rights reserved
Information provided via PilotNav comes from a variety of official and unofficial data sources. As errors are possible, do not use PilotNav for primary flight planning purposes. Verify any information that you receive via PilotNav with current and canonical charts and other official documents. The material in this database is subject to database copyrights held by Dauntless Aviation and may not be copied without the express permission of Dauntless Aviation - licenses for use of part of all of this data are available for purchase; enquire via the Dauntless Aviation helpdesk. A number of mechanisms and markers exist in the database to protect against and identify infringement / copyright. Automated queries against this website are stictly prohibited, and all activity is logged and analyzed.